Regional Weather Roundup
Issued by NWS

Home | Current Version | Previous Version | Graphics & Text | Print | Product List | Glossary On
Versions: 1 2 3 4 5 6 7 8 9 10 11 12 13 14 15 16 17 18 19 20 21 22 23 24 25 26 27 28 29 30 31 32 33 34 35 36 37 38 39 40 41 42 43 44 45 46 47 48
000
ASUS45 KCYS 061210
RWRWY

WYOMING REGIONAL WEATHER ROUNDUP
NATIONAL WEATHER SERVICE CHEYENNE WY
500 AM MST SAT FEB 06 2016

NOTE:  "FAIR" INDICATES FEW OR NO CLOUDS BELOW 12,000 FEET
WITH NO SIGNIFICANT WEATHER AND/OR OBSTRUCTIONS TO VISIBILITY.

WYZ001-061300-
YELLOWSTONE NATIONAL PARK

CITY           SKY/WX    TMP DP  RH WIND       PRES   REMARKS
LK YELLOWSTONE   N/A     21  17  84 VRB5      30.32S WCI  15
6HR MIN TEMP:  18; 6HR MAX TEMP:  21;

W YELLOWSTONE  NOT AVBL

$$
WYZ002>013-054>058-071-098>099-061300-
NORTHERN WYOMING

CITY           SKY/WX    TMP DP  RH WIND       PRES   REMARKS
JACKSON        CLOUDY    14  12  92 CALM      30.38F
CODY           FAIR      39  16  38 W17G30    30.12F WCI  30
GREYBULL       FAIR      18  13  80 VRB3      30.21R
6HR MIN TEMP:  16; 6HR MAX TEMP:  21;

WORLAND        FAIR      12   9  87 CALM      30.20R
6HR MIN TEMP:  12; 6HR MAX TEMP:  18;

SHERIDAN       FAIR      29  17  61 S5        30.01F WCI  24
6HR MIN TEMP:  19; 6HR MAX TEMP:  32;

BUFFALO        FAIR      30  17  58 CALM      30.02F
6HR MIN TEMP:  26; 6HR MAX TEMP:  39;

GILLETTE       FAIR      31  18  58 SW21      30.04S WCI  18
6HR MIN TEMP:  27; 6HR MAX TEMP:  31;

HULETT         FAIR      32  18  55 SW13      30.04S WCI  22
NEWCASTLE      FAIR      19  12  73 MISG      30.12S

$$
WYZ014>020-022>026-101>103-061300-
CENTRAL WYOMING

CITY           SKY/WX    TMP DP  RH WIND       PRES   REMARKS
BIG PINEY      FAIR      10   5  80 N3        30.37R
6HR MIN TEMP:   2; 6HR MAX TEMP:  14;

PINEDALE       FAIR      16  12  86 W9        30.36R WCI   4
DUBOIS         FAIR      23  16  74 NW25G38   30.26R WCI   7
LANDER         FAIR      18   8  65 SE6       30.19S WCI  10
6HR MIN TEMP:  12; 6HR MAX TEMP:  24;

RIVERTON       FAIR      16   8  71 SW6       30.20S WCI   7
6HR MIN TEMP:  13; 6HR MAX TEMP:  26;

CASPER         FAIR      25  17  72 S28G40    30.19S WCI   9
6HR MIN TEMP:  22; 6HR MAX TEMP:  25;

DOUGLAS        FAIR      26  15  63 CALM        N/A
6HR MIN TEMP:  15; 6HR MAX TEMP:  29;


$$
WYZ021-027>030-104>119-061300-
SOUTHERN WYOMING

CITY           SKY/WX    TMP DP  RH WIND       PRES   REMARKS
EVANSTON       FAIR      16  12  84 SW7       30.43R WCI   6
6HR MIN TEMP:  11; 6HR MAX TEMP:  18;

FORT BRIDGER   SUNNY     21  14  73 W15       30.42R WCI   8
ROCK SPRINGS   FAIR      18  13  80 VRB7      30.37R WCI   9
6HR MIN TEMP:  18; 6HR MAX TEMP:  22;

DIXON          FAIR      -1  -5  85 CALM      30.46S
RAWLINS        MOCLDY    18  10  71 S7        30.33F WCI   9
6HR MIN TEMP:  18; 6HR MAX TEMP:  22;

SARATOGA       FAIR      14   7  73 S12       30.35S WCI   0
LARAMIE        FAIR      19   9  65 SW23      30.23S WCI   2
6HR MIN TEMP:  17; 6HR MAX TEMP:  20;

CHEYENNE       FAIR      29  13  51 W17G29    30.14F WCI  17
6HR MIN TEMP:  24; 6HR MAX TEMP:  29;

TORRINGTON     FAIR      26  17  68 SW5       30.16S WCI  20
6HR MIN TEMP:  24; 6HR MAX TEMP:  30;

PINE BLUFFS    FAIR      23  14  68 W12       30.18S WCI  12

$$



USA.gov is the U.S. government's official web portal to all federal, state and local government web resources and services.